Simultaneous Nadir Overpasses (SNOs) Predictions

Prediction of SNOs between GOES-17 and METOP-B Satellite Orbit:

Table of predicted SNOs for the next 14.0 days since TLE Epoch: 2/28/2025
Index Date Time (GOES-17) GOES-17 Lat,Lon METOP-B Lat,Lon Distance(km) Time Diff (sec)
1 03/01/2025 03:56:15 -0.02,-104.40 0.75,-100.92 396.36 80
2 03/02/2025 16:15:11 0.02,-104.42 0.29,-105.51 125.38 80
3 03/03/2025 15:51:55 0.02,-104.42 -0.82,-100.54 441.54 80
4 03/05/2025 04:11:00 -0.02,-104.41 -0.16,-105.18 87.92 80
5 03/06/2025 03:53:03 -0.02,-104.41 0.89,-100.20 479.06 80
6 03/07/2025 16:11:59 0.02,-104.43 0.12,-104.80 42.84 80
7 03/10/2025 04:07:47 -0.00,-104.41 -0.02,-104.46 5.48 80
8 03/12/2025 16:06:06 0.00,-104.45 -0.06,-104.08 41.16 80
9 03/14/2025 04:25:10 0.00,-104.44 -0.93,-108.72 487.62 80
